Notices

What's New in latest Release from April 7th, 2021:

- Updated Glossary, including Speed of Maximum Gust, and Total Hourly Precipitation

- Updated national and regional climate services offices contacts and prices information

- Addition of station inventory lists for 1981-2010, 1971-2000, and 1961-1990 Normals.

If you haven't already, please take our survey and provide feedback about our website: https://eccc.sondage-survey.ca/f/LanguageSelection.aspx?s=442ca660-fcf1-47c0-95a9-59707d6fd709

Hourly Data Report for April 06, 2003

TORONTO CITY
ONTARIO

43°40'00.000" N
79°24'00.000" W
112.50 m
6158355
71508
XTO

Download Data

Hourly Data (April 2003)
Hourly Data Report for April 6, 2003
TIME
LST
Temp Definition
°C
Dew Point Definition
°C
Rel Hum Definition
%
Precip. Amount Definition
mm

Wind Dir Definition
10's deg

Wind Spd Definition
km/h
Visibility Definition
km
Stn Press Definition
kPa
Hmdx Definition


Wind Chill Definition


Weather Definition


00:00 -5.1 -10.0 68   LegendMM LegendMM LegendMM 100.94     LegendNANA
01:00 -5.2 -9.9 70   LegendMM LegendMM LegendMM 101.03     LegendNANA
02:00 -5.8 -9.9 73   LegendMM LegendMM LegendMM 101.14     LegendNANA
03:00 -6.6 -11.1 70   LegendMM LegendMM LegendMM 101.23     LegendNANA
04:00 -7.0 -11.1 73   LegendMM LegendMM LegendMM 101.32     LegendNANA
05:00 -7.3 -11.6 71   LegendMM LegendMM LegendMM 101.40     LegendNANA
06:00 -7.5 -11.9 71   LegendMM LegendMM LegendMM 101.53     LegendNANA
07:00 -7.5 -12.1 70   LegendMM LegendMM LegendMM 101.66     LegendNANA
08:00 -6.3 -12.1 63   LegendMM LegendMM LegendMM 101.76     LegendNANA
09:00 -5.0 -11.9 58   LegendMM LegendMM LegendMM 101.81     LegendNANA
10:00 -4.2 -11.1 59   LegendMM LegendMM LegendMM 101.84     LegendNANA
11:00 -2.4 -11.7 49   LegendMM LegendMM LegendMM 101.89     LegendNANA
12:00 -1.3 -10.5 50   LegendMM LegendMM LegendMM 101.86     LegendNANA
13:00 -0.3 -10.3 47   LegendMM LegendMM LegendMM 101.89     LegendNANA
14:00 0.4 -10.5 44   LegendMM LegendMM LegendMM 101.85     LegendNANA
15:00 0.7 -11.4 40   LegendMM LegendMM LegendMM 101.83     LegendNANA
16:00 -0.4 -8.2 56   LegendMM LegendMM LegendMM 101.87     LegendNANA
17:00 -0.5 -7.4 60   LegendMM LegendMM LegendMM 101.88     LegendNANA
18:00 -1.3 -7.7 62   LegendMM LegendMM LegendMM 101.89     LegendNANA
19:00 -1.9 -7.3 67   LegendMM LegendMM LegendMM 101.97     LegendNANA
20:00 -1.7 -7.1 67   LegendMM LegendMM LegendMM 102.05     LegendNANA
21:00 -2.1 -7.1 69   LegendMM LegendMM LegendMM 102.02     LegendNANA
22:00 -1.7 -8.7 59   LegendMM LegendMM LegendMM 101.99     LegendNANA
23:00 -2.5 -9.3 60   LegendMM LegendMM LegendMM 102.04     LegendNANA

Notes on Data Quality.

Legend

  • E = Estimated
  • M = Missing
  • NA = Not Available*
  • [empty] = Indicates an unobserved value
Date modified: